Airfield :
LOGIN :

Register | Disclaimer

   EN    FR    IT 

 










Legend :    VFR   Marginal VFR   IFR   Intensive IFR   Very Intensive IFR
Visi :
Ceiling :
>= 8 km
>= 3000ft
5 to 8 km
1000 to 3000 ft
1500m to 5 km
500 to 1000 ft
800 to 1500m
200 to 500 ft
< 800m
< 200 ft
Symbols :   Thunderstorms  Fog  Heavy snow  Heavy precipitations  Wind > 20 kt
SIGMETs :     Misc.  Thunderstorms  Icing  Turbulence  Mountain Waves  Volcanic Ashes







- Airport Elevation : 5600 ft
- IATA code : SMV


LSZS - Samedan

CURRENT METAR :
  • 240520Z AUTO VRB03KT CAVOK M09/M10 Q1020

EXPIRED METARs :
  • 240450Z AUTO VRB01KT CAVOK M10/M11 Q1020
  • 240420Z AUTO VRB01KT CAVOK M08/M09 Q1020
  • 240350Z AUTO VRB03KT CAVOK M08/M09 Q1020
  • 240320Z AUTO VRB02KT CAVOK M08/M09 Q1020
  • 240250Z AUTO VRB02KT CAVOK M08/M09 Q1020 RESN

TAF TAF LSZS
Valid from the 24 at 06:00 until the 24 at 15:00 UTC


240525Z 2406/2415 VRB01KT CAVOK TX05/2413Z
TEMPO 2406/2415 9999 FEW080
ATIS : +41 81 834 93 24
No reported NOTAMs for that airfield.



MET'MAP, your aeronautical weather chart ! - Copyright ORBIFLY December 2007 - Disclaimer

ORBIFLY MET'MAP TEAM :

Programming & Development : Alexandra Zaïnal
Concept & Development : Baudouin d'Aumeries
Co-Development & Prog : Marc-Olivier Méhu
Technical & hardware support : Manuel Goepfert

Contact : metmap@orbifly.com




SOURCES & CREDITS :

   NOAA